Minchumina, AK

4:40 AM AKDT on September 25, 2017 (GMT -0800)
Minchumina

Weather History for PAMH - May, 2013

Change the Weather History Date:

Saturday, May 25, 2013

  Actual Average Record
Temperature  
Mean Temperature 54 °F -  
Max Temperature 69 °F 56 °F 82 °F (2002)
Min Temperature 39 °F 39 °F 32 °F (2017)
Degree Days  
Heating Degree Days 11    
Growing Degree Days 4 (Base 50)    
Moisture  
Dew Point 33 °F    
Average Humidity 44    
Maximum Humidity 81    
Minimum Humidity 23    
Precipitation  
Precipitation 0.00 in - - ()
Sea Level Pressure  
Sea Level Pressure 29.86 in    
Wind  
Wind Speed 1 mph (East)    
Max Wind Speed 7 mph    
Max Gust Speed -    
Visibility 10 miles    
Events      
Averages and records for this station are not official NWS values.
T = Trace of Precipitation, MM = Missing Value Source: NWS Daily Summary

Daily Weather History Graph

Daily Weather History Graph

Search for Another Location

Airport or City:

Trip Planner

Search our weather history database for the weather conditions in past years. The results will help you decide how hot, cold, wet, or windy it might be!

Date:

Astronomy

May. 25, 2013 Rise Set
Actual Time 4:26 AM AKDT 11:48 PM AKDT
Civil Twilight 2:38 AM AKDT 1:33 AM AKDT
Nautical Twilight Sun does not set Sun does not set
Astronomical Twilight Sun does not set Sun does not set
Moon No Moon Rise 5:17 AM AKDT
Length of Visible Light 22h 55m
Length of Day
19h 22m
Full, 99% of the Moon is Illuminated
May 25
Full
May 31
Last Quarter
Jun 8
New
Jun 16
First Quarter
Jun 23
Full

Hourly Weather History & Observations

Time (AKDT) Temp. Windchill Dew Point Humidity Pressure Visibility Wind Dir Wind Speed Gust Speed Precip Events Conditions
12:16 AM 55.4 °F - 35.6 °F 47% 29.92 in 10.0 mi NNW 3.5 mph - N/A   Clear
12:36 AM 55.4 °F - 33.8 °F 44% 29.92 in 10.0 mi Calm Calm - N/A   Clear
12:56 AM 53.6 °F - 33.8 °F 47% 29.92 in 10.0 mi Calm Calm - N/A   Clear
1:16 AM 53.6 °F - 33.8 °F 47% 29.92 in 10.0 mi Calm Calm - N/A   Clear
1:36 AM 50.0 °F - 33.8 °F 54% 29.92 in 10.0 mi Calm Calm - N/A   Clear
1:56 AM 51.8 °F - 33.8 °F 50% 29.92 in 10.0 mi Calm Calm - N/A   Clear
2:16 AM 53.6 °F - 33.8 °F 47% 29.92 in 10.0 mi Calm Calm - N/A   Clear
2:36 AM 53.6 °F - 33.8 °F 47% 29.92 in 10.0 mi NW 4.6 mph - N/A   Clear
2:56 AM 53.6 °F - 33.8 °F 47% 29.92 in 10.0 mi NNW 3.5 mph - N/A   Clear
3:16 AM 46.4 °F - 35.6 °F 66% 29.92 in 10.0 mi Calm Calm - N/A   Clear
3:36 AM 44.6 °F - 33.8 °F 66% 29.92 in 10.0 mi Calm Calm - N/A   Clear
3:56 AM 44.6 °F - 33.8 °F 66% 29.92 in 10.0 mi Calm Calm - N/A   Clear
4:16 AM 46.4 °F - 33.8 °F 62% 29.92 in 10.0 mi Calm Calm - N/A   Clear
4:36 AM 46.4 °F - 33.8 °F 62% 29.92 in 10.0 mi Calm Calm - N/A   Clear
4:56 AM 41.0 °F - 33.8 °F 76% 29.92 in 10.0 mi Calm Calm - N/A   Clear
5:16 AM 42.8 °F - 33.8 °F 70% 29.92 in 10.0 mi Calm Calm - N/A   Clear
5:36 AM 39.2 °F - 33.8 °F 81% 29.92 in 10.0 mi Calm Calm - N/A   Clear
5:56 AM 39.2 °F - 33.8 °F 81% 29.92 in 10.0 mi Calm Calm - N/A   Clear
6:16 AM 39.2 °F - 33.8 °F 81% 29.92 in 10.0 mi Calm Calm - N/A   Clear
6:36 AM 39.2 °F - 33.8 °F 81% 29.92 in 10.0 mi Calm Calm - N/A   Clear
6:56 AM 41.0 °F - 33.8 °F 76% 29.92 in 10.0 mi Calm Calm - N/A   Clear
7:16 AM 42.8 °F - 35.6 °F 76% 29.91 in 10.0 mi Calm Calm - N/A   Clear
7:36 AM 42.8 °F 41.1 °F 33.8 °F 70% 29.91 in 10.0 mi ENE 3.5 mph - N/A   Clear
7:56 AM 42.8 °F - 33.8 °F 70% 29.91 in 10.0 mi Calm Calm - N/A   Clear
8:16 AM 44.6 °F 43.1 °F 35.6 °F 71% 29.91 in 10.0 mi ENE 3.5 mph - N/A   Clear
8:36 AM 46.4 °F 44.3 °F 33.8 °F 62% 29.91 in 10.0 mi ENE 4.6 mph - N/A   Clear
8:56 AM 48.2 °F - 35.6 °F 62% 29.90 in 10.0 mi Calm Calm - N/A   Clear
9:16 AM 50.0 °F - 35.6 °F 58% 29.90 in 10.0 mi ENE 3.5 mph - N/A   Clear
9:36 AM 51.8 °F - 35.6 °F 54% 29.90 in 10.0 mi ENE 3.5 mph - N/A   Clear
9:56 AM 53.6 °F - 35.6 °F 51% 29.90 in 10.0 mi East 3.5 mph - N/A   Clear
10:16 AM 55.4 °F - 35.6 °F 47% 29.89 in 10.0 mi Calm Calm - N/A   Clear
10:36 AM 57.2 °F - 35.6 °F 44% 29.89 in 10.0 mi Calm Calm - N/A   Clear
10:56 AM 59.0 °F - 35.6 °F 42% 29.89 in 10.0 mi ENE 3.5 mph - N/A   Clear
11:16 AM 60.8 °F - 37.4 °F 42% 29.88 in 10.0 mi Calm Calm - N/A   Clear
11:36 AM 60.8 °F - 35.6 °F 39% 29.88 in 10.0 mi Calm Calm - N/A   Clear
11:56 AM 62.6 °F - 37.4 °F 39% 29.87 in 10.0 mi Calm Calm - N/A   Clear
12:16 PM 62.6 °F - 35.6 °F 37% 29.87 in 10.0 mi Calm Calm - N/A   Clear
12:36 PM 62.6 °F - 37.4 °F 39% 29.86 in 10.0 mi ENE 4.6 mph - N/A   Clear
12:56 PM 64.4 °F - 37.4 °F 37% 29.86 in 10.0 mi Calm Calm - N/A   Clear
1:16 PM 64.4 °F - 35.6 °F 34% 29.86 in 10.0 mi Calm Calm - N/A   Clear
1:36 PM 64.4 °F - 35.6 °F 34% 29.86 in 10.0 mi SE 3.5 mph - N/A   Clear
1:56 PM 66.2 °F - 33.8 °F 30% 29.86 in 10.0 mi South 4.6 mph - N/A   Clear
2:16 PM 66.2 °F - 33.8 °F 30% 29.85 in 10.0 mi SSE 5.8 mph - N/A   Clear
2:36 PM 66.2 °F - 33.8 °F 30% 29.85 in 10.0 mi South 3.5 mph - N/A   Clear
2:56 PM 66.2 °F - 33.8 °F 30% 29.84 in 10.0 mi SE 4.6 mph - N/A   Clear
3:16 PM 66.2 °F - 33.8 °F 30% 29.84 in 10.0 mi SSE 6.9 mph - N/A   Clear
3:36 PM 66.2 °F - 33.8 °F 30% 29.84 in 10.0 mi ENE 4.6 mph - N/A   Clear
3:56 PM 68.0 °F - 33.8 °F 28% 29.83 in 10.0 mi ENE 3.5 mph - N/A   Clear
4:16 PM 68.0 °F - 33.8 °F 28% 29.83 in 10.0 mi ENE 3.5 mph - N/A   Partly Cloudy
4:36 PM 64.4 °F - 30.2 °F 28% 29.82 in 10.0 mi Calm Calm - N/A   Mostly Cloudy
4:56 PM 66.2 °F - 32.0 °F 28% 29.82 in 10.0 mi Calm Calm - N/A   Overcast
5:16 PM 66.2 °F - 30.2 °F 26% 29.81 in 10.0 mi Calm Calm - N/A   Mostly Cloudy
5:36 PM 68.0 °F - 32.0 °F 26% 29.81 in 10.0 mi Calm Calm - N/A   Overcast
5:56 PM 66.2 °F - 32.0 °F 28% 29.81 in 10.0 mi Calm Calm - N/A   Overcast
6:16 PM 66.2 °F - 30.2 °F 26% 29.80 in 10.0 mi Calm Calm - N/A   Overcast
6:36 PM 68.0 °F - 30.2 °F 24% 29.79 in 10.0 mi Calm Calm - N/A   Mostly Cloudy
6:56 PM 66.2 °F - 30.2 °F 26% 29.79 in 10.0 mi Calm Calm - N/A   Scattered Clouds
7:16 PM 66.2 °F - 30.2 °F 26% 29.79 in 10.0 mi Calm Calm - N/A   Scattered Clouds
7:36 PM 68.0 °F - 30.2 °F 24% 29.79 in 10.0 mi Calm Calm - N/A   Partly Cloudy
7:56 PM 69.8 °F - 30.2 °F 23% 29.79 in 10.0 mi Calm Calm - N/A   Mostly Cloudy
8:16 PM 68.0 °F - 30.2 °F 24% 29.79 in 10.0 mi Calm Calm - N/A   Overcast
8:36 PM 68.0 °F - 30.2 °F 24% 29.78 in 10.0 mi Calm Calm - N/A   Mostly Cloudy
8:56 PM 66.2 °F - 30.2 °F 26% 29.78 in 10.0 mi Calm Calm - N/A   Mostly Cloudy
9:16 PM 66.2 °F - 30.2 °F 26% 29.78 in 10.0 mi Calm Calm - N/A   Overcast
9:36 PM 64.4 °F - 30.2 °F 28% 29.78 in 10.0 mi Calm Calm - N/A   Mostly Cloudy
9:56 PM 64.4 °F - 30.2 °F 28% 29.78 in 10.0 mi SSE 3.5 mph - N/A   Partly Cloudy
10:16 PM 60.8 °F - 33.8 °F 36% 29.79 in 10.0 mi Calm Calm - N/A   Clear
10:36 PM 62.6 °F - 30.2 °F 30% 29.79 in 10.0 mi Calm Calm - N/A   Clear
10:56 PM 62.6 °F - 30.2 °F 30% 29.79 in 10.0 mi Calm Calm - N/A   Clear
11:16 PM 60.8 °F - 30.2 °F 31% 29.79 in 10.0 mi SW 3.5 mph - N/A   Clear
11:36 PM 60.8 °F - 30.2 °F 31% 29.79 in 10.0 mi Calm Calm - N/A   Clear
11:56 PM 59.0 °F - 28.4 °F 31% 29.80 in 10.0 mi Calm Calm - N/A   Clear